[[{"header":{"parameterUnit":"m.s-1","parameterCategory":1,"la1":30.2991,"la2":30.254,"lo1":-89.0895,"lo2":-89.0444,"dy":0.0017,"dx":0.0017,"nx":28,"ny":28,"refTime":"2025-08-24T21:00:00:Z","depth":0,"parameterNumber":2,"parameterNumberName":"U-component_of_WINDS"},"data":[0,0,0,0,0,0,0,0,0,0,0,0,0,0,0,0,0,0,0,0,0,0,0,0,0,0,0,0,0,0,0,0,0,0,0,0,0,0,0,0,0,0,0,0,0,0,0,0,0,0,0,0,0,0,0,0,0,0,-2.9028,-2.9028,0,-2.9051,-2.9051,-2.9051,-2.8965,-2.8962,-2.896,-2.8957,-2.8981,-2.8984,-2.8987,0,0,0,0,0,0,0,0,0,0,0,0,0,-2.8908,-2.8911,-2.9028,-2.9028,-2.9028,-2.9051,-2.9051,-2.9051,-2.8965,-2.8962,-2.8959,-2.8956,-2.898,-2.8983,-2.8987,0,0,0,0,0,0,0,0,0,0,0,0,0,-2.8949,-2.8912,-2.9028,-2.8988,-2.8985,-2.9051,-2.9051,-2.9051,-2.8966,-2.8962,-2.8958,-2.8955,-2.8978,-2.8983,-2.8987,-2.9092,0,0,-2.9001,-2.9003,0,0,0,0,0,0,0,0,-2.8946,-2.8953,-2.8994,-2.8991,-2.8987,-2.9001,-2.9017,-2.9065,-2.8967,-2.8973,-2.8957,-2.8953,-2.8991,-2.8994,-2.9007,-2.9093,-2.9094,-2.9002,-2.9004,-2.9006,-2.9007,0,0,0,0,0,0,0,-2.8944,-2.8951,-2.9037,-2.8994,-2.8991,-2.8969,-2.897,-2.9026,-2.9003,-2.8972,-2.8966,-2.897,-2.8988,-2.9002,-2.9006,-2.9095,-2.9001,-2.9005,-2.9008,-2.901,-2.9265,-2.9269,0,0,0,0,0,0,-2.8946,-2.895,-2.9036,-2.9037,-2.8957,-2.8974,-2.8976,-2.9001,-2.9002,-2.8999,-2.8973,-2.8966,-2.8997,-2.9001,-2.9007,-2.9127,-2.9006,-2.901,-2.9013,-2.9261,-2.9266,-2.9271,0,0,0,0,0,0,-2.8944,-2.8955,-2.9035,-2.8992,-2.9,-2.898,-2.9009,-2.9003,-2.9017,-2.9003,-2.8998,-2.8992,-2.8994,-2.9001,-2.9071,-2.9127,-2.9012,-2.9017,-2.9257,-2.9263,-2.9268,-2.937,0,0,0,0,0,0,-2.8941,-2.8954,-2.8994,-2.8993,-2.9003,-2.9099,-2.9012,-2.9006,-2.9025,-2.9016,-2.902,-2.9016,-2.8991,-2.9065,-2.9075,-2.9131,-2.902,-2.9251,-2.9259,-2.9267,-2.9362,-2.9379,-2.9394,0,0,0,0,0,-2.8937,-2.9023,-2.8997,-2.9008,-2.9053,-2.9103,-2.9108,-2.9078,-2.903,-2.907,-2.906,-2.9016,-2.912,-2.9073,-2.9084,-2.9142,-2.9248,-2.9257,-2.9266,-2.9355,-2.9376,-2.9394,0,0,0,0,0,0,-2.9031,-2.9022,-2.8993,-2.9082,-2.9094,-2.9088,-2.9137,-2.9102,-2.9127,-2.9117,-2.9078,-2.908,-2.9156,-2.9156,-2.9104,-2.9242,-2.9175,-2.9187,-2.9239,-2.9259,-2.9275,-2.9272,-2.9024,0,0,0,0,0,-2.9062,-2.9104,-2.9094,-2.9173,-2.918,-2.9158,-2.9179,-2.9154,-2.9165,-2.9169,-2.9165,-2.9177,-2.9212,-2.9236,-2.9267,-2.9362,-2.936,-2.9408,-2.9424,-2.9437,-2.9447,-2.9494,-2.9514,-2.9301,-2.9301,-2.9301,0,0,-2.9127,-2.9127,-2.9156,-2.9192,-2.9198,-2.9241,-2.9163,-2.9212,-2.9243,-2.9177,-2.9242,-2.924,-2.9251,-2.9333,-2.9369,-2.9335,-2.9506,-2.9449,-2.9459,-2.9462,-2.9506,-2.9526,-2.9544,-2.9307,-2.9306,-2.9305,0,0,-2.9266,-2.9272,-2.9336,-2.9344,-2.9355,-2.9339,-2.9355,-2.9355,-2.935,-2.9415,-2.9366,-2.9402,-2.9464,-2.9473,-2.9485,-2.9627,-2.9586,-2.9638,-2.9721,-2.9768,-2.9785,-2.98,-2.9848,-2.9866,-2.9649,-2.9649,-2.9649,0,-2.9345,-2.9408,-2.9374,-2.9426,-2.9442,-2.9384,-2.9449,-2.9458,-2.9479,-2.9491,-2.9453,-2.9527,-2.9531,-2.9613,-2.9647,-2.9661,-2.9676,-2.9637,-2.9786,-2.98,-2.9813,-2.9858,-2.9877,-2.9655,-2.9654,-2.9654,-2.9653,0,-2.9503,-2.9547,-2.9599,-2.9619,-2.9641,-2.97,-2.9674,-2.97,-2.9674,-2.9662,-2.9728,-2.973,-2.976,-2.9778,-2.9753,-2.9856,-2.9835,-2.9792,-2.9724,-2.984,-2.9881,-2.9899,-2.9664,-2.9662,-2.966,-2.9658,0,0,-2.9701,-2.9701,-2.972,-2.9728,-2.9735,-2.9768,-2.9823,-2.9852,-2.9874,-2.9891,-2.9935,-2.9988,-2.9948,-2.9962,-2.9938,-2.9979,-3.0088,-2.9931,-2.993,-2.9957,-3.0199,-3.0229,-3.0249,-3.0062,-3.0065,-3.0068,-3.0197,0,-2.9835,-2.9929,-2.99,-2.9994,-3.0033,-2.9978,-3.0026,-3.0035,-3.0026,-3.0057,-3.0047,-3.0084,-3.003,-3.0037,-3.0076,-3.0066,-3.0135,-3.0057,-3.01,-3.0102,-3.0097,-3.0272,-3.0304,-3.0426,-3.0213,-3.0216,-3.0218,0,-3.0004,-3.0026,-3.0124,-3.0122,-3.0137,-3.0181,-3.0203,-3.0235,-3.0244,-3.0234,-3.025,-3.0216,-3.0269,-3.0202,-3.0274,-3.0221,-3.0237,-3.0235,-3.0239,-3.024,-3.0165,-3.0274,-3.0464,-3.0481,-3.0244,-3.0242,-3.024,0,-3.0135,-3.0189,-3.0254,-3.0263,-3.0263,-3.0294,-3.0296,-3.0301,-3.0319,-3.034,-3.0351,-3.0378,-3.0392,-3.0413,-3.0387,-3.0341,-3.0461,-3.0393,-3.0452,-3.0453,-3.0478,-3.0476,-3.067,-3.0494,-3.0493,-3.0493,-3.0493,0,-3.0287,-3.0348,-3.0312,-3.0352,-3.0419,-3.0385,-3.0451,-3.0447,-3.0452,-3.0489,-3.0444,-3.0479,-3.0444,-3.0477,-3.0457,-3.0517,-3.0525,-3.0517,-3.0511,-3.052,-3.052,-3.0528,-3.0517,-3.0498,-3.0497,-3.0496,-3.0495,0,-3.0443,-3.0423,-3.0489,-3.0484,-3.0484,-3.0533,-3.0528,-3.0564,-3.0551,-3.0598,-3.0607,-3.0588,-3.0623,-3.06,-3.0636,-3.0623,-3.0701,-3.0684,-3.0698,-3.0692,-3.0752,-3.0745,-3.0955,-3.098,-3.079,-3.0792,-3.0794,0,-3.054,-3.0586,-3.0585,-3.0606,-3.061,-3.0646,-3.0664,-3.0632,-3.0653,-3.0665,-3.0699,-3.0731,-3.0754,-3.0814,-3.0802,-3.0829,-3.0811,-3.0882,-3.0814,-3.0821,-3.0808,-3.0804,-3.0808,-3.0895,-3.0897,-3.0899,-3.0901,0,-3.0712,-3.0699,-3.0727,-3.0752,-3.0774,-3.0792,-3.0806,-3.0826,-3.0794,-3.0819,-3.0855,-3.0873,-3.0909,-3.094,-3.0962,-3.0963,-3.0926,-3.0923,-3.0937,-3.0945,-3.095,-3.0945,-3.0732,-3.0917,-3.0916,-3.0914,-3.0914,-3.0913,-3.084,-3.0877,-3.0881,-3.0913,-3.092,-3.0934,-3.0967,-3.0958,-3.0987,-3.1013,-3.0993,-3.1034,-3.104,-3.1066,-3.1072,-3.1103,-3.1074,-3.1096,-3.1101,-3.1106,-3.1113,-3.0948,-3.1108,-3.1107,-3.1107,-3.1106,-3.1106,0,-3.1007,-3.1007,-3.1037,-3.1057,-3.1082,-3.1046,-3.1059,-3.1082,-3.1119,-3.1128,-3.1151,-3.1191,-3.1221,-3.1212,-3.1238,-3.1265,-3.1248,-3.1273,-3.1269,-3.1269,-3.114,-3.1123,-3.1285,-3.1285,-3.1285,-3.1285,-3.1285,-3.1285,-3.1097,-3.1157,-3.1144,-3.1206,-3.1206,-3.1246,-3.1256,-3.1268,-3.1274,-3.132,-3.1345,-3.1339,-3.134,-3.1365,-3.1391,-3.1387,-3.1398,-3.1428,-3.1418,-3.1296,-3.1279,-3.1262,-3.1245,-3.1431,-3.1431,-3.1544,-3.1545,-3.1546]},{"header":{"parameterUnit":"m.s-1","parameterCategory":1,"la1":30.2991,"la2":30.254,"lo1":-89.0895,"lo2":-89.0444,"dy":0.0017,"dx":0.0017,"nx":28,"ny":28,"refTime":"2025-08-24T21:00:00:Z","depth":0,"parameterNumber":3,"parameterNumberName":"V-component_of_WINDS"},"data":[0,0,0,0,0,0,0,0,0,0,0,0,0,0,0,0,0,0,0,0,0,0,0,0,0,0,0,0,0,0,0,0,0,0,0,0,0,0,0,0,0,0,0,0,0,0,0,0,0,0,0,0,0,0,0,0,0,0,-1.42,-1.42,0,-1.4202,-1.4202,-1.4202,-1.4209,-1.4209,-1.4209,-1.421,-1.4212,-1.4211,-1.4211,0,0,0,0,0,0,0,0,0,0,0,0,0,-1.4201,-1.4201,-1.42,-1.42,-1.42,-1.4202,-1.4202,-1.4202,-1.4209,-1.4209,-1.4209,-1.421,-1.4212,-1.4211,-1.4211,0,0,0,0,0,0,0,0,0,0,0,0,0,-1.4202,-1.4201,-1.42,-1.4204,-1.4204,-1.4202,-1.4202,-1.4202,-1.4209,-1.4209,-1.421,-1.421,-1.4212,-1.4211,-1.4211,-1.4206,0,0,-1.4211,-1.4211,0,0,0,0,0,0,0,0,-1.4202,-1.4202,-1.4203,-1.4203,-1.4204,-1.4206,-1.4203,-1.4203,-1.4209,-1.4207,-1.421,-1.421,-1.4209,-1.4209,-1.4209,-1.4206,-1.4206,-1.4211,-1.4211,-1.4211,-1.4211,0,0,0,0,0,0,0,-1.4202,-1.4202,-1.4201,-1.4203,-1.4203,-1.4205,-1.4205,-1.4203,-1.4207,-1.4207,-1.4208,-1.4208,-1.421,-1.4209,-1.4209,-1.4206,-1.4211,-1.4211,-1.4211,-1.4211,-1.4197,-1.4197,0,0,0,0,0,0,-1.4201,-1.4202,-1.4201,-1.4201,-1.4203,-1.4205,-1.4205,-1.4205,-1.4207,-1.4207,-1.4208,-1.4208,-1.4209,-1.4209,-1.4209,-1.4202,-1.4211,-1.4211,-1.421,-1.4197,-1.4197,-1.4196,0,0,0,0,0,0,-1.4201,-1.4201,-1.42,-1.4201,-1.4201,-1.4205,-1.4204,-1.4205,-1.4204,-1.4207,-1.4208,-1.4207,-1.421,-1.421,-1.4206,-1.4202,-1.421,-1.421,-1.4197,-1.4197,-1.4197,-1.4188,0,0,0,0,0,0,-1.4201,-1.4201,-1.4199,-1.4201,-1.4201,-1.4197,-1.4204,-1.4204,-1.4204,-1.4205,-1.4207,-1.4207,-1.421,-1.4206,-1.4206,-1.4202,-1.421,-1.4198,-1.4197,-1.4197,-1.4189,-1.4187,-1.4186,0,0,0,0,0,-1.4201,-1.4197,-1.4199,-1.4199,-1.4199,-1.4197,-1.4197,-1.4201,-1.4204,-1.4202,-1.4203,-1.4207,-1.4203,-1.4206,-1.4206,-1.4202,-1.4198,-1.4197,-1.4197,-1.4189,-1.4188,-1.4186,0,0,0,0,0,0,-1.4194,-1.4197,-1.4199,-1.4195,-1.4196,-1.4198,-1.4196,-1.4199,-1.4198,-1.4199,-1.4203,-1.4204,-1.4199,-1.42,-1.4204,-1.4196,-1.4201,-1.42,-1.4195,-1.4194,-1.4193,-1.4192,-1.421,0,0,0,0,0,-1.4192,-1.419,-1.4193,-1.4189,-1.4189,-1.4192,-1.4192,-1.4194,-1.4195,-1.4195,-1.4197,-1.4197,-1.4196,-1.4195,-1.4194,-1.4189,-1.4189,-1.4186,-1.4185,-1.4184,-1.4183,-1.4179,-1.4178,-1.4194,-1.4194,-1.4194,0,0,-1.4187,-1.4189,-1.4188,-1.4188,-1.4188,-1.4186,-1.4193,-1.4191,-1.4189,-1.4195,-1.4192,-1.4193,-1.4194,-1.4189,-1.4187,-1.419,-1.4179,-1.4183,-1.4182,-1.4182,-1.4179,-1.4177,-1.4176,-1.4194,-1.4194,-1.4194,0,0,-1.4178,-1.4179,-1.4176,-1.4176,-1.4177,-1.418,-1.4179,-1.4181,-1.4182,-1.4178,-1.4183,-1.4181,-1.4179,-1.4179,-1.4179,-1.417,-1.4173,-1.4169,-1.4163,-1.4159,-1.4158,-1.4157,-1.4152,-1.4151,-1.4168,-1.4168,-1.4168,0,-1.4172,-1.417,-1.4174,-1.4171,-1.4171,-1.4176,-1.4172,-1.4173,-1.4173,-1.4173,-1.4176,-1.4173,-1.4174,-1.4169,-1.4167,-1.4167,-1.4166,-1.4169,-1.4158,-1.4157,-1.4156,-1.4152,-1.415,-1.4168,-1.4168,-1.4168,-1.4168,0,-1.4162,-1.416,-1.4157,-1.4158,-1.4157,-1.4154,-1.4157,-1.4156,-1.4159,-1.416,-1.4157,-1.4158,-1.4157,-1.4157,-1.4159,-1.4152,-1.4153,-1.4157,-1.4162,-1.4153,-1.415,-1.4148,-1.4167,-1.4167,-1.4168,-1.4168,0,0,-1.4148,-1.415,-1.4149,-1.4149,-1.415,-1.4149,-1.4146,-1.4145,-1.4144,-1.4144,-1.4141,-1.4139,-1.4142,-1.4142,-1.4145,-1.4142,-1.4133,-1.4146,-1.4146,-1.4143,-1.4124,-1.4121,-1.4119,-1.4136,-1.4135,-1.4135,-1.4124,0,-1.4138,-1.4133,-1.4137,-1.4131,-1.4129,-1.4134,-1.4131,-1.4132,-1.4133,-1.4131,-1.4133,-1.4131,-1.4136,-1.4136,-1.4133,-1.4135,-1.413,-1.4136,-1.4132,-1.4132,-1.4131,-1.4117,-1.4114,-1.4103,-1.4123,-1.4123,-1.4122,0,-1.4127,-1.4126,-1.412,-1.4121,-1.4121,-1.4118,-1.4117,-1.4116,-1.4116,-1.4117,-1.4117,-1.412,-1.4117,-1.4123,-1.4118,-1.4122,-1.4121,-1.4121,-1.4121,-1.412,-1.4126,-1.4115,-1.41,-1.4098,-1.412,-1.412,-1.4121,0,-1.4116,-1.4114,-1.411,-1.4109,-1.4111,-1.4109,-1.411,-1.411,-1.4109,-1.4109,-1.4108,-1.4107,-1.4106,-1.4105,-1.4108,-1.4112,-1.4103,-1.4109,-1.4103,-1.4103,-1.41,-1.41,-1.4083,-1.4101,-1.4101,-1.4101,-1.4101,0,-1.4104,-1.41,-1.4105,-1.4102,-1.4097,-1.4101,-1.4096,-1.4098,-1.4098,-1.4096,-1.41,-1.4098,-1.4102,-1.41,-1.4102,-1.4097,-1.4097,-1.4098,-1.4098,-1.4097,-1.4096,-1.4095,-1.4096,-1.4101,-1.4101,-1.4101,-1.4101,0,-1.4091,-1.4094,-1.409,-1.4091,-1.4092,-1.4088,-1.409,-1.4087,-1.4089,-1.4086,-1.4085,-1.4088,-1.4085,-1.4088,-1.4086,-1.4088,-1.4081,-1.4083,-1.4081,-1.4081,-1.4075,-1.4075,-1.4056,-1.4053,-1.4073,-1.4073,-1.4073,0,-1.4083,-1.408,-1.4081,-1.408,-1.408,-1.4078,-1.4077,-1.4081,-1.4079,-1.4079,-1.4077,-1.4075,-1.4073,-1.4069,-1.4071,-1.4069,-1.407,-1.4064,-1.407,-1.4068,-1.4069,-1.4069,-1.4068,-1.4062,-1.4062,-1.4062,-1.4062,0,-1.4068,-1.407,-1.4068,-1.4067,-1.4065,-1.4065,-1.4064,-1.4063,-1.4067,-1.4065,-1.4062,-1.4061,-1.4059,-1.4057,-1.4055,-1.4056,-1.4059,-1.406,-1.4058,-1.4056,-1.4055,-1.4054,-1.4076,-1.406,-1.406,-1.406,-1.406,-1.4061,-1.4057,-1.4054,-1.4054,-1.4052,-1.4052,-1.4051,-1.4049,-1.405,-1.4048,-1.4047,-1.4049,-1.4046,-1.4046,-1.4044,-1.4044,-1.4042,-1.4044,-1.4042,-1.4042,-1.4041,-1.4039,-1.4056,-1.4042,-1.4042,-1.4042,-1.4042,-1.4042,0,-1.4041,-1.4042,-1.404,-1.4039,-1.4037,-1.4041,-1.404,-1.4038,-1.4035,-1.4035,-1.4034,-1.403,-1.4028,-1.403,-1.4027,-1.4025,-1.4026,-1.4024,-1.4024,-1.4024,-1.4038,-1.4039,-1.4023,-1.4023,-1.4023,-1.4023,-1.4023,-1.4023,-1.4033,-1.4028,-1.403,-1.4025,-1.4025,-1.4022,-1.4021,-1.402,-1.402,-1.4016,-1.4014,-1.4015,-1.4015,-1.4013,-1.4011,-1.4012,-1.401,-1.4007,-1.4008,-1.4021,-1.4023,-1.4024,-1.4025,-1.4007,-1.4007,-1.3994,-1.3994,-1.3994]}]]